Regional Weather Roundup
Issued by NWS

Home | Current Version | Previous Version | Graphics & Text | Print | Product List | Glossary On
Versions: 1 2 3 4 5 6 7 8 9 10 11 12 13 14 15 16 17 18 19 20 21 22 23 24 25 26 27 28 29 30 31 32 33 34 35 36 37 38 39 40 41 42 43 44 45 46 47 48 49 50
474
ASUS44 KJAN 271303
RWRMS

MISSISSIPPI HOURLY WEATHER ROUNDUP
NATIONAL WEATHER SERVICE JACKSON MS
800 AM CDT FRI MAR 27 2015

NOTE: "FAIR: INDICATES FEW OR NO CLOUDS BELOW 12,000 FEET WITH NO
SIGNIFICANT WEATHER AND/OR OBSTRUCTIONS TO VISIBILITY.

MSZ001>002-007>008-010>013-018>021-025>028-034>036-271400-
NORTHWEST MISSISSIPPI

CITY           SKY/WX    TMP DP  RH WIND       PRES   REMARKS
CLARKSDALE       N/A     39  39 100 CALM      30.10R
CLEVELAND      FAIR      41  40  97 N3        30.09R
GREENWOOD      MOSUNNY   41  35  79 CALM      30.08R
GREENVILLE     SUNNY     42  38  85 CALM      30.09R
OLIVE BRANCH   PTSUNNY   36  36 100 W5        30.08R WCI  32
OXFORD         FAIR      32  32 100 W3        30.08R FOG
TUNICA         MOSUNNY   39  37  93 CALM      30.09S FOG
$$

MSZ003>006-009-014>017-022>024-029>033-037>039-271400-
NORTHEAST MISSISSIPPI

CITY           SKY/WX    TMP DP  RH WIND       PRES   REMARKS
COLUMBUS AFB   SUNNY     43  35  72 N14       30.04R
CORINTH        PTSUNNY   39  36  87 NW5       30.04R
GOLDN TRIANGLE MOSUNNY   43  36  75 N14       30.04R
STARKVILLE     FAIR      39  36  87 N3        30.06R
TUPELO         SUNNY     39  33  79 NE8       30.04S WCI  33
$$

MSZ040-058-271400-
CENTRAL MISSISSIPPI

CITY           SKY/WX    TMP DP  RH WIND       PRES   REMARKS
JACKSON INTL   SUNNY     44  39  82 N8        30.06R
JACKSON HAWKNS SUNNY     42  38  85 N7        30.07R
MERIDIAN KEY   PTSUNNY   44  36  73 NW8       30.03R
MERIDIAN NAS   PTSUNNY   46  36  68 N13       30.02R
RAYMOND        FAIR      41  37  87 N5        30.08R
VICKSBURG      SUNNY     45  38  76 NW5       30.10R
$$

MSZ059>079-271400-
SOUTH MISSISSIPPI

CITY           SKY/WX    TMP DP  RH WIND       PRES   REMARKS
BROOKHAVEN       N/A     43  43 100 NW7       30.08R
HATTIESBURG    CLOUDY    49  40  71 NW8       30.04R
MCCOMB         SUNNY     45  40  82 N8        30.05R
NATCHEZ        SUNNY     41  37  87 NW5       30.10R
PINE BELT      CLOUDY    46  37  71 N9        30.03R
$$

MSZ080>082-271400-
COASTAL MISSISSIPPI

CITY           SKY/WX    TMP DP  RH WIND       PRES   REMARKS
BAY ST LOUIS   PTSUNNY   52  41  66 N12G17    30.01R
BILOXI         CLOUDY    52  45  77 N14       29.97S
PASCAGOULA     CLOUDY    51  45  79 N15G21    29.96R
GULFPORT       CLOUDY    52  45  77 NW13      29.98R
$$



USA.gov is the U.S. government's official web portal to all federal, state and local government web resources and services.